ARABSAT-7B (BADR-8)

Last updated on Mon Sep 21 2026 00:03:02 GMT+0000 (Coordinated Universal Time)

1 56757U 23075A 26263.25808750 .00000140 00000+0 00000+0 0 9994 2 56757 0.0770 23.5745 0001601 359.5283 94.9827 1.00271705 12077
UTC large
Height (km)
Speed (km/s)
/
Latitude / Longitude
Inclination (degrees)
Orbital Period (minutes)
Azimuth
Elevation
Range (km)
Doppler Factor

Next 0 passes for location: London (51.5072 / 0.1276)

No passes found over London.
ARABSAT-7B (BADR-8)